Regional Weather Roundup
Issued by NWS

Home | Current Version | Previous Version | Graphics & Text | Print | Product List | Glossary On
Versions: 1 2 3 4 5 6 7 8 9 10 11 12 13 14 15 16 17 18 19 20 21 22 23 24 25 26 27 28 29 30 31 32 33 34 35 36 37 38 39 40 41 42 43 44 45 46 47 48 49 50
000
ASUS44 KMEG 270800
RWRTN
TENNESSEE HOURLY STATE WEATHER ROUNDUP
NATIONAL WEATHER SERVICE MEMPHIS TN
200 AM CST MON FEB 27 2017

TNZ002-004-019-021-049-052-054-088>092-270900-
WEST TENNESSEE

CITY           SKY/WX    TMP DP  RH WIND       PRES   REMARKS
MEMPHIS INTL   RAIN      50  42  74 NE3       30.12F
NWS MEMPHIS      N/A     49 N/A N/A MISG        N/A
JACKSON        LGT RAIN  50  43  77 MISG      30.16R
UNION CITY     CLOUDY    46  46 100 CALM      30.12F
PARIS          MOCLDY    45  41  87 SE3       30.16F
$$

TNZ008-025-027-028-033-062-065-066-270900-
NORTH MIDDLE TENNESSEE

CITY           SKY/WX    TMP DP  RH WIND       PRES   REMARKS
NASHVILLE      CLOUDY    48  29  47 N7        30.20R
CLARKSVILLE    LGT RAIN  47  39  74 S5        30.19S
SMYRNA         CLOUDY    46  34  62 CALM      30.22R
CROSSVILLE     CLOUDY    41  22  46 CALM      30.21R
$$

TNZ061-075-076-078-094-096-097-270900-
SOUTH MIDDLE TENNESSEE

CITY           SKY/WX    TMP DP  RH WIND       PRES   REMARKS
TULLAHOMA      CLEAR     48  19  32 CALM      30.18R
WINCHESTER     CLEAR     50  25  37 SE6       30.17F
MCMINNVILLE    CLEAR     45  34  65 CALM      30.18S
COLUMBIA       PTCLDY    46  34  61 NW3       30.17R
SHELBYVILLE    CLEAR     48  34  57 E3        30.18S
$$

TNZ017-018-042-046-047-270900-
NORTHEAST TENNESSEE

CITY           SKY/WX    TMP DP  RH WIND       PRES   REMARKS
TRI CITIES     CLOUDY    31  25  78 CALM      30.25S
$$

TNZ012-013-036-069-073-074-270900-
CENTRAL EAST TENNESSEE

CITY           SKY/WX    TMP DP  RH WIND       PRES   REMARKS
KNOXVILLE      CLOUDY    39  26  59 CALM      30.22R
OAK RIDGE      CLOUDY    38  26  62 CALM      30.24R
GATLINBURG     PTCLDY    30  25  80 CALM      30.23S
$$

TNZ083-085-099-270900-
SOUTHEAST TENNESSEE

CITY           SKY/WX    TMP DP  RH WIND       PRES   REMARKS
CHATTANOOGA    MOCLDY    45  33  63 CALM      30.22R
$$

SKY/WX REPORTED AS FAIR MEANS FEW OR NO CLOUDS BELOW
12 THOUSAND FEET.





USA.gov is the U.S. government's official web portal to all federal, state and local government web resources and services.